Wind_Speed
29 26 23 21 18 16 17 15 15 16 15 15 16 18 19 18 16 15 13 12 15 16 16 17 16 16 16 16 15 15 16 17 17 18 18 18 18 17 17 18 18 17 18
31 26 23 21 20 16 15 16 16 17 16 15 17 18 17 17 14 13 12 16 16 18 19 18 18 19 18 18 17 17 17 19 19 19 18 18 18 17 17 17 15 16 16
29 26 23 20 17 15 15 14 15 17 16 16 18 15 16 18 15 14 13 17 19 18 19 19 20 20 19 21 22 21 19 17 18 17 16 18 17 16 16 15 16 16 15
29 26 22 19 17 16 16 14 14 14 15 16 15 14 23 22 19 16 15 17 18 18 19 19 19 19 20 22 22 21 18 16 15 17 17 18 16 15 14 15 15 16 15
28 25 21 19 18 17 16 14 14 13 14 15 16 20 24 20 18 14 17 18 18 19 18 20 20 21 22 22 21 19 18 18 14 14 15 17 15 15 15 15 15 15 15
27 24 21 20 18 17 16 14 14 14 14 15 17 19 19 17 15 16 18 19 19 18 21 22 22 23 20 18 18 18 18 16 14 14 15 16 15 16 15 15 15 15 14
26 24 22 20 17 16 14 14 14 14 14 16 16 18 17 16 16 16 18 19 19 19 20 20 19 19 15 16 16 17 17 16 14 15 15 15 15 14 15 13 13 13 12
25 24 22 19 16 14 13 13 16 15 16 16 16 18 17 17 16 16 18 19 18 18 18 19 19 15 16 19 15 16 16 14 13 13 12 14 13 13 12 12 12 12 11
24 24 22 19 17 14 12 14 16 18 15 15 16 18 18 17 16 16 18 18 17 17 17 19 18 15 20 17 13 13 14 14 13 12 12 12 12 11 12 12 11 11 10
25 23 21 20 18 15 12 15 18 18 16 15 16 19 18 18 16 16 17 17 17 16 16 18 18 14 12 12 10 12 13 12 11 12 10 10 10 10 10 11 10 9 9
28 25 22 20 18 15 13 17 19 16 16 15 17 19 17 19 17 15 18 18 16 16 16 18 17 14 12 13 12 10 12 13 11 12 11 9 9 9 8 9 9 8 8
29 26 23 20 18 16 16 18 19 18 18 17 19 20 18 16 16 15 16 16 15 16 16 17 15 13 13 12 11 9 11 11 8 8 9 9 6 7 6 8 8 8 7
26 26 24 21 18 16 16 18 19 17 17 17 18 19 18 15 15 15 15 16 16 16 16 17 15 14 12 10 8 7 10 8 8 7 9 9 7 6 6 5 7 7 6
28 25 24 22 19 17 17 18 18 18 18 17 17 16 15 15 13 14 14 14 14 15 16 15 13 14 13 11 7 6 6 8 8 8 8 8 8 6 6 5 5 6 5
25 26 26 23 22 19 18 19 19 20 18 17 16 14 13 13 12 12 15 15 13 15 16 15 11 10 11 12 8 6 6 5 10 4 6 7 8 9 8 6 7 7 7
24 25 25 23 23 20 18 20 20 17 17 17 15 13 12 12 10 12 14 15 15 15 15 11 8 6 10 12 10 8 7 8 8 6 6 7 9 9 9 8 8 9 8
25 24 23 22 25 19 19 19 20 18 17 15 14 12 11 11 10 8 11 13 13 13 13 10 6 6 8 7 7 7 7 9 11 11 8 9 10 10 9 10 9 10 10
29 28 23 27 24 22 22 20 18 17 16 14 12 12 12 11 10 11 12 13 11 12 12 12 5 7 10 9 8 8 8 11 13 12 11 13 13 11 7 11 12 12 12
31 31 28 29 27 24 22 21 17 15 15 15 15 14 14 12 12 13 13 12 12 11 11 10 8 7 8 9 7 10 12 13 15 17 15 16 19 20 17 17 17 14 14
33 32 31 29 29 25 23 21 20 17 14 15 16 16 15 12 13 14 14 13 13 15 14 13 11 9 9 8 11 12 13 13 13 15 18 19 23 21 22 19 19 17 16
37 34 36 33 28 27 27 25 24 22 17 17 21 18 17 13 12 14 16 17 16 14 14 12 12 12 11 10 12 14 16 15 15 15 16 17 19 19 20 20 17 17 17
37 37 37 35 32 30 27 27 26 23 19 16 18 19 17 16 12 12 16 17 19 18 19 16 14 12 12 14 13 10 8 7 7 9 11 14 16 21 21 23 20 19 23
37 37 38 35 34 31 25 25 26 25 22 19 19 21 19 18 15 12 12 15 16 17 18 18 16 14 12 9 9 10 5 3 9 5 6 10 12 16 22 27 28 25 20
37 34 34 34 34 32 26 26 26 25 32 28 23 19 19 20 18 15 13 15 18 17 17 16 16 16 17 15 9 9 13 12 8 5 4 7 11 15 16 22 25 28 26
39 35 34 33 33 31 28 29 19 24 27 30 27 22 21 21 20 18 16 15 20 21 19 18 18 20 19 18 18 13 11 10 10 18 21 14 7 14 18 17 21 22 23
40 38 34 37 33 32 30 28 20 20 21 22 28 27 24 21 20 20 19 18 18 22 22 21 20 21 20 18 18 19 20 18 15 13 17 20 22 21 16 17 17 20 19
Wind_Direction
163 161 156 153 152 148 135 127 123 127 123 122 125 127 125 121 122 114 98 103 117 115 113 109 113 118 117 117 112 112 110 112 113 115 116 112 111 111 108 101 99 104 104
158 162 156 151 149 146 138 134 132 130 125 125 126 128 132 135 132 120 97 112 114 108 111 115 110 111 114 113 115 112 111 115 114 111 113 110 105 105 103 103 100 102 103
158 158 155 153 154 155 149 141 139 135 132 131 131 124 143 149 140 127 109 114 116 115 113 111 115 116 113 110 108 109 108 112 118 114 112 111 103 107 107 106 104 104 100
157 158 157 157 157 158 150 147 144 140 139 137 134 114 128 140 140 131 116 117 118 118 116 121 120 119 118 115 111 110 111 115 118 117 117 113 108 106 107 108 106 103 100
159 158 160 158 158 156 154 151 146 141 140 138 136 132 130 130 132 136 131 123 123 122 123 121 119 124 123 119 118 114 108 115 115 120 119 120 113 112 108 107 105 102 99
161 161 163 161 159 158 156 154 153 148 146 145 144 148 142 137 136 136 135 129 126 124 125 126 122 123 124 122 118 114 110 111 115 119 124 118 113 113 111 108 108 103 103
164 165 164 163 163 161 158 157 152 145 149 147 143 148 148 145 138 137 134 133 130 132 134 131 131 129 126 131 123 115 110 104 108 115 118 122 117 117 110 114 114 108 107
167 167 166 166 166 163 161 163 157 156 149 147 146 148 146 145 141 140 136 134 134 134 138 136 135 130 127 126 127 118 110 104 113 116 119 126 121 123 118 114 113 108 104
172 171 169 169 167 162 160 162 162 155 156 149 153 150 149 146 142 140 138 137 141 139 143 143 136 124 136 134 124 126 117 106 113 117 120 127 124 125 116 119 108 107 104
175 175 173 171 168 162 165 163 162 154 152 148 154 154 154 148 143 141 136 138 142 144 148 149 147 138 131 143 134 127 119 112 117 113 121 131 125 127 117 120 116 117 107
178 178 178 175 171 164 160 158 159 157 159 156 153 155 156 152 152 150 147 148 139 142 152 154 151 149 143 134 135 128 140 122 132 129 129 135 133 133 133 130 124 116 106
182 181 180 178 174 166 160 160 161 161 160 163 158 157 156 158 158 156 155 151 141 145 154 157 161 159 152 144 146 137 145 144 125 134 137 138 148 143 153 138 141 130 116
184 183 181 180 177 171 163 160 164 162 160 159 159 159 164 165 163 165 162 163 152 150 148 160 168 171 166 155 148 151 163 176 169 160 156 149 154 162 162 157 158 149 138
194 187 182 180 179 173 169 166 164 163 162 156 156 158 160 164 166 172 168 169 163 158 159 156 166 179 182 186 178 188 185 183 173 165 169 170 168 175 183 176 186 170 160
193 191 186 183 177 172 174 172 169 163 161 159 161 158 157 157 168 166 167 170 170 164 158 166 167 179 197 200 202 207 213 198 199 184 189 199 194 190 196 205 200 192 181
181 190 183 185 178 173 171 175 172 172 171 170 168 172 159 157 148 170 176 179 182 174 176 177 185 233 223 220 227 232 226 231 237 233 231 227 227 206 205 207 215 213 201
185 182 183 178 180 177 170 171 176 172 170 174 178 180 181 178 179 175 180 185 190 183 188 205 220 199 187 187 228 239 247 243 237 243 249 232 237 226 215 206 208 216 215
193 189 182 179 178 176 174 176 179 187 189 183 180 186 191 201 204 200 185 191 188 197 202 214 211 204 211 237 242 242 262 254 247 248 246 246 214 200 230 243 219 213 215
203 197 193 184 183 177 175 182 184 196 205 205 203 202 197 211 218 215 211 200 211 212 217 219 222 220 222 240 260 277 276 271 257 247 250 241 233 239 254 246 238 221 216
210 207 203 196 188 186 183 184 192 203 223 224 221 216 216 219 230 225 225 225 224 226 226 218 226 233 234 248 258 265 283 276 269 260 247 257 250 247 246 233 237 232 225
213 209 205 203 197 193 192 192 197 205 217 231 226 225 223 223 239 237 234 240 232 223 228 223 231 239 243 256 270 271 274 267 272 268 266 258 238 236 240 220 232 240 238
216 211 206 206 203 201 203 202 209 209 218 220 214 215 220 222 234 243 244 244 240 240 233 232 235 250 257 259 273 276 294 281 286 270 273 256 254 245 237 228 233 236 236
211 210 207 207 206 207 210 209 211 213 221 216 209 213 218 225 232 247 261 246 242 243 239 237 242 250 258 267 272 251 268 291 325 302 304 257 259 262 242 241 240 243 244
216 215 212 211 207 211 210 212 219 224 223 226 225 220 223 232 237 245 257 248 246 247 247 246 244 252 251 241 271 260 254 278 278 291 283 282 256 251 257 251 250 247 245
219 218 217 214 212 215 212 217 230 218 223 236 237 230 233 239 243 244 249 253 246 249 246 245 247 249 256 261 260 259 268 247 273 255 274 267 279 285 256 257 257 252 251
219 218 218 213 215 218 218 228 243 237 235 230 231 235 236 240 243 244 245 250 251 247 249 249 252 253 256 264 269 265 264 266 269 284 277 280 283 287 282 266 265 256 257
Height
1540 1545 1547 1550 1552 1552 1553 1552 1553 1553 1554 1554 1554 1555 1556 1558 1559 1560 1560 1561 1562 1562 1563 1563 1564 1566 1567 1567 1568 1569 1570 1571 1572 1574 1575 1576 1577 1578 1578 1579 1579 1579 1580
1540 1545 1547 1550 1552 1554 1554 1555 1556 1555 1555 1555 1556 1556 1558 1560 1561 1562 1562 1563 1565 1566 1566 1566 1567 1568 1569 1570 1571 1572 1573 1574 1575 1577 1578 1578 1579 1580 1581 1582 1583 1583 1583
1542 1546 1548 1551 1553 1555 1555 1556 1557 1557 1557 1558 1558 1558 1558 1561 1563 1563 1564 1566 1567 1568 1568 1569 1570 1571 1572 1573 1574 1576 1577 1579 1579 1580 1581 1581 1582 1583 1584 1584 1585 1585 1586
1543 1547 1550 1553 1554 1556 1556 1557 1558 1559 1560 1561 1561 1560 1559 1563 1564 1564 1567 1568 1569 1569 1570 1571 1572 1574 1576 1577 1579 1580 1581 1582 1582 1583 1583 1584 1585 1586 1587 1588 1588 1589 1589
1544 1548 1551 1554 1556 1557 1558 1560 1560 1561 1562 1563 1563 1563 1564 1566 1567 1567 1567 1569 1570 1571 1573 1573 1575 1576 1578 1580 1580 1581 1583 1584 1585 1586 1586 1587 1589 1589 1590 1591 1592 1592 1593
1546 1550 1553 1556 1558 1559 1560 1561 1562 1563 1564 1564 1565 1565 1565 1568 1569 1569 1569 1570 1573 1574 1575 1577 1578 1580 1582 1582 1583 1584 1585 1586 1586 1587 1588 1589 1591 1592 1593 1594 1595 1595 1596
1547 1551 1554 1557 1559 1560 1562 1563 1563 1564 1565 1566 1567 1567 1568 1569 1570 1571 1571 1573 1574 1576 1578 1579 1581 1582 1584 1584 1585 1586 1586 1587 1588 1589 1590 1591 1593 1594 1595 1597 1597 1598 1598
1550 1552 1556 1558 1560 1562 1563 1564 1564 1565 1567 1568 1568 1569 1570 1571 1573 1573 1574 1575 1577 1579 1580 1582 1583 1584 1586 1587 1587 1588 1588 1590 1591 1592 1593 1594 1595 1596 1597 1599 1600 1600 1601
1553 1555 1557 1560 1562 1563 1564 1564 1565 1566 1568 1569 1570 1571 1572 1574 1575 1576 1577 1578 1580 1581 1582 1584 1585 1586 1587 1588 1589 1591 1591 1592 1593 1594 1595 1597 1597 1599 1600 1601 1602 1602 1603
1554 1556 1558 1561 1563 1564 1565 1566 1567 1569 1570 1572 1573 1574 1575 1576 1577 1578 1579 1581 1582 1583 1584 1586 1588 1588 1589 1590 1592 1593 1593 1594 1596 1596 1597 1598 1599 1601 1602 1603 1604 1605 1605
1554 1556 1559 1561 1563 1565 1566 1567 1569 1570 1572 1574 1575 1576 1577 1578 1580 1581 1581 1584 1584 1585 1586 1588 1590 1590 1591 1593 1594 1595 1596 1596 1597 1597 1598 1600 1601 1602 1604 1604 1606 1607 1607
1553 1555 1559 1562 1564 1565 1567 1568 1570 1571 1573 1575 1577 1578 1580 1581 1582 1583 1583 1585 1586 1587 1588 1589 1590 1591 1592 1594 1596 1597 1598 1599 1599 1600 1600 1601 1603 1603 1605 1605 1607 1608 1609
1552 1556 1559 1562 1564 1566 1567 1569 1571 1572 1574 1576 1578 1580 1581 1583 1583 1584 1585 1586 1588 1589 1589 1591 1591 1592 1594 1595 1597 1598 1599 1600 1601 1600 1601 1602 1604 1605 1606 1607 1608 1609 1609
1552 1556 1559 1562 1564 1567 1568 1570 1571 1572 1575 1577 1579 1581 1582 1583 1584 1585 1587 1589 1590 1591 1591 1592 1593 1594 1596 1597 1598 1599 1600 1601 1602 1603 1602 1602 1604 1606 1607 1608 1609 1610 1611
1553 1556 1559 1562 1565 1567 1569 1571 1572 1573 1575 1578 1580 1582 1582 1584 1585 1586 1587 1590 1592 1593 1593 1594 1595 1596 1597 1598 1599 1601 1601 1602 1604 1604 1603 1603 1604 1606 1607 1609 1609 1610 1611
1553 1556 1560 1563 1566 1568 1569 1571 1573 1574 1576 1578 1580 1582 1583 1585 1586 1587 1588 1590 1591 1593 1595 1596 1597 1597 1598 1599 1600 1601 1602 1602 1603 1603 1604 1604 1604 1606 1607 1608 1610 1610 1612
1552 1556 1560 1563 1567 1569 1571 1573 1574 1576 1577 1579 1581 1582 1584 1585 1587 1588 1589 1590 1592 1594 1595 1596 1597 1596 1598 1598 1600 1600 1601 1602 1602 1603 1603 1603 1604 1606 1607 1608 1608 1610 1611
1552 1555 1560 1563 1566 1569 1571 1574 1575 1577 1578 1580 1581 1582 1584 1586 1587 1589 1590 1591 1592 1594 1595 1596 1596 1597 1598 1598 1599 1599 1600 1600 1601 1601 1602 1603 1603 1605 1606 1608 1608 1609 1610
1549 1553 1557 1560 1564 1567 1570 1573 1576 1578 1579 1580 1581 1582 1584 1586 1587 1588 1589 1591 1592 1593 1594 1595 1596 1597 1598 1598 1598 1598 1597 1598 1598 1599 1600 1601 1602 1603 1605 1607 1607 1608 1609
1546 1551 1556 1558 1561 1566 1569 1572 1575 1577 1578 1580 1581 1582 1583 1585 1586 1587 1588 1590 1591 1591 1593 1594 1595 1597 1597 1597 1597 1597 1596 1595 1595 1595 1597 1598 1599 1600 1601 1603 1605 1606 1607
1542 1547 1552 1556 1560 1564 1567 1570 1572 1574 1577 1578 1580 1581 1583 1584 1585 1586 1587 1588 1589 1590 1592 1594 1594 1595 1596 1596 1596 1596 1596 1594 1592 1592 1592 1593 1594 1598 1598 1601 1603 1604 1605
1537 1542 1547 1552 1557 1561 1565 1567 1570 1572 1575 1577 1579 1581 1582 1584 1585 1585 1586 1586 1587 1588 1590 1591 1592 1593 1594 1594 1594 1594 1594 1593 1590 1590 1590 1590 1591 1593 1595 1595 1598 1601 1602
1532 1537 1542 1547 1553 1558 1562 1566 1569 1571 1573 1575 1576 1579 1581 1583 1584 1585 1585 1585 1585 1587 1587 1588 1590 1592 1592 1592 1592 1593 1592 1591 1589 1588 1587 1587 1589 1589 1590 1591 1594 1595 1598
1531 1537 1540 1545 1550 1555 1560 1563 1565 1566 1568 1571 1574 1577 1579 1582 1583 1584 1584 1583 1584 1585 1585 1586 1588 1589 1589 1590 1591 1590 1590 1587 1587 1587 1586 1584 1585 1586 1585 1587 1588 1591 1593
1530 1534 1541 1543 1548 1552 1556 1560 1562 1564 1567 1569 1572 1574 1577 1579 1580 1582 1582 1583 1582 1583 1584 1584 1585 1586 1587 1587 1588 1588 1587 1587 1585 1585 1583 1584 1583 1580 1583 1583 1585 1586 1588
1528 1531 1538 1540 1544 1547 1551 1555 1557 1562 1564 1566 1568 1570 1573 1576 1577 1579 1580 1580 1580 1581 1581 1582 1582 1583 1584 1584 1584 1585 1584 1584 1583 1582 1580 1580 1580 1580 1580 1580 1580 1581 1583